GW2644 Weather Reports


Display with metric or nautical units.
time (UTC)temp
F
wind
direction
speed
MPH
gust
MPH
rain 1hr
in
rain 24hr
in
rain mn
in
humidity
%
barometer
mb
20260831163440 75 281 2.0 2.0 0.00 0.00 0.00 78 1017.6
20260831162938 74 270 0.0 1.0 0.00 0.00 0.00 78 1017.5
20260831162435 75 243 0.0 1.0 0.00 0.00 0.00 78 1017.5
20260831161932 76 206 0.0 2.0 0.00 0.00 0.00 76 1017.7
20260831161424 76 259 2.0 2.0 0.00 0.00 0.00 75 1017.6
20260831160919 73 289 0.0 2.0 0.00 0.00 0.00 78 1017.7
20260831160413 74 286 0.0 1.0 0.00 0.00 0.00 80 1017.6
20260831155908 73 221 0.0 0.0 0.00 0.00 0.00 81 1017.6
20260831155403 75 209 0.0 1.0 0.00 0.00 0.00 81 1017.6
20260831154858 74 264 0.0 1.0 0.00 0.00 0.00 82 1017.6
20260831154355 73 249 0.0 0.0 0.00 0.00 0.00 84 1017.6
20260831153852 73 270 0.0 0.0 0.00 0.00 0.00 86 1017.7
20260831153349 72 261 0.0 0.0 0.00 0.00 0.00 86 1017.7
20260831152845 72 331 0.0 0.0 0.00 0.00 0.00 87 1017.6
20260831152340 72 270 0.0 1.0 0.00 0.00 0.00 88 1017.6
20260831151835 71 261 0.0 0.0 0.00 0.00 0.00 89 1017.6
20260831151334 71 234 0.0 1.0 0.00 0.00 0.00 90 1017.5
20260831150829 72 234 0.0 0.0 0.00 0.00 0.00 91 1017.4
20260831150325 71 255 0.0 1.0 0.00 0.00 0.00 92 1017.5
20260831145823 70 270 0.0 0.0 0.00 0.00 0.00 92 1017.3
20260831145320 70 255 0.0 1.0 0.00 0.00 0.00 94 1017.3
20260831144816 70 270 0.0 0.0 0.00 0.00 0.00 95 1017.3
20260831144312 70 279 0.0 0.0 0.00 0.00 0.00 95 1017.3
20260831143811 69 279 0.0 0.0 0.00 0.00 0.00 95 1017.3
20260831143306 69 279 0.0 0.0 0.00 0.00 0.00 95 1017.2
20260831142756 69 279 0.0 0.0 0.00 0.00 0.00 95 1017.0
20260831142252 69 279 0.0 0.0 0.00 0.00 0.00 95 1016.9
20260831141751 69 279 0.0 0.0 0.00 0.00 0.00 95 1017.1
20260831141246 69 279 0.0 0.0 0.00 0.00 0.00 95 1017.1
20260831140740 68 279 0.0 0.0 0.00 0.00 0.00 95 1017.1
20260831140235 68 279 0.0 0.0 0.00 0.00 0.00 95 1016.8
20260831135732 68 279 0.0 0.0 0.00 0.00 0.00 95 1016.7
20260831135228 68 279 0.0 0.0 0.00 0.00 0.00 95 1016.5
20260831134724 69 279 0.0 0.0 0.00 0.00 0.00 95 1016.6
20260831134221 68 279 0.0 0.0 0.00 0.00 0.00 94 1016.4
20260831133719 68 279 0.0 0.0 0.00 0.00 0.00 94 1016.4
20260831133214 68 279 0.0 0.0 0.00 0.00 0.00 94 1016.4
20260831132709 68 279 0.0 0.0 0.00 0.00 0.00 94 1016.5
20260831132209 68 279 0.0 0.0 0.00 0.00 0.00 94 1016.3
20260831131708 68 279 0.0 0.0 0.00 0.00 0.00 94 1016.2
20260831131205 68 279 0.0 0.0 0.00 0.00 0.00 94 1016.3
20260831130700 68 279 0.0 0.0 0.00 0.00 0.00 94 1016.3
20260831130155 68 279 0.0 0.0 0.00 0.00 0.00 94 1016.1
20260831125653 68 279 0.0 0.0 0.00 0.00 0.00 94 1016.3
20260831125149 69 279 0.0 0.0 0.00 0.00 0.00 94 1016.2
20260831124645 69 279 0.0 0.0 0.00 0.00 0.00 94 1016.3
20260831124142 69 279 0.0 0.0 0.00 0.00 0.00 94 1016.0
20260831123641 69 279 0.0 0.0 0.00 0.00 0.00 94 1016.1
20260831123140 69 279 0.0 0.0 0.00 0.00 0.00 94 1016.2
20260831122639 69 279 0.0 0.0 0.00 0.00 0.00 93 1016.0
20260831122131 69 279 0.0 0.0 0.00 0.00 0.00 93 1016.2
20260831121630 69 279 0.0 0.0 0.00 0.00 0.00 93 1016.1
20260831121126 69 270 0.0 0.0 0.00 0.00 0.00 93 1016.0
20260831120621 69 270 0.0 0.0 0.00 0.00 0.00 93 1016.2
20260831120116 70 270 0.0 0.0 0.00 0.00 0.00 93 1016.1
20260831115612 70 270 0.0 0.0 0.00 0.00 0.00 93 1016.0
20260831115107 70 270 0.0 0.0 0.00 0.00 0.00 93 1016.3
20260831114606 69 270 0.0 0.0 0.00 0.00 0.00 92 1016.1
20260831114101 70 270 0.0 0.0 0.00 0.00 0.00 92 1016.2
20260831113600 70 270 0.0 0.0 0.00 0.00 0.00 92 1016.1
20260831113056 69 270 0.0 0.0 0.00 0.00 0.00 92 1016.0
20260831112555 69 270 0.0 0.0 0.00 0.00 0.00 91 1016.0
20260831112050 69 270 0.0 0.0 0.00 0.00 0.00 91 1016.3
20260831111547 70 270 0.0 0.0 0.00 0.00 0.00 91 1016.2
20260831111042 70 270 0.0 0.0 0.00 0.00 0.00 91 1016.1
20260831110537 70 270 0.0 0.0 0.00 0.00 0.00 91 1016.2
20260831110032 70 270 0.0 0.0 0.00 0.00 0.00 91 1016.1
20260831105531 70 270 0.0 0.0 0.00 0.00 0.00 90 1016.1
20260831105026 70 270 0.0 0.0 0.00 0.00 0.00 90 1016.1
20260831104523 71 270 0.0 0.0 0.00 0.00 0.00 90 1016.2
20260831104018 71 270 0.0 0.0 0.00 0.00 0.00 89 1016.4
20260831103518 71 270 0.0 0.0 0.00 0.00 0.00 89 1016.4
20260831103015 71 270 0.0 0.0 0.00 0.00 0.00 88 1016.4
20260831102508 71 270 0.0 0.0 0.00 0.00 0.00 88 1016.5
20260831102003 71 270 0.0 0.0 0.00 0.00 0.00 87 1016.3
20260831101458 71 254 0.0 0.0 0.00 0.00 0.00 87 1016.3
20260831100954 71 270 0.0 0.0 0.00 0.00 0.00 86 1016.1
20260831100450 71 270 0.0 0.0 0.00 0.00 0.00 86 1016.2
20260831095945 71 270 0.0 0.0 0.00 0.00 0.00 85 1016.5
20260831095444 71 270 0.0 0.0 0.00 0.00 0.00 85 1016.1
20260831094939 71 270 0.0 0.0 0.00 0.00 0.00 85 1016.2
20260831094436 71 270 0.0 0.0 0.00 0.00 0.00 84 1016.4
20260831093931 71 270 0.0 0.0 0.00 0.00 0.00 84 1016.3
20260831093426 71 270 0.0 0.0 0.00 0.00 0.00 83 1016.4
20260831092923 71 270 0.0 0.0 0.00 0.00 0.00 83 1016.3
20260831092418 71 270 0.0 0.0 0.00 0.00 0.00 82 1016.1
20260831091913 71 270 0.0 0.0 0.00 0.00 0.00 82 1016.2
20260831091408 71 270 0.0 0.0 0.00 0.00 0.00 82 1016.2
20260831090903 71 270 0.0 0.0 0.00 0.00 0.00 81 1016.1
20260831090354 71 270 0.0 0.0 0.00 0.00 0.00 81 1016.0
20260831085850 70 270 0.0 0.0 0.00 0.00 0.00 80 1016.1
20260831085344 71 270 0.0 0.0 0.00 0.00 0.00 80 1016.2
20260831084844 70 270 0.0 0.0 0.00 0.00 0.00 80 1016.3
20260831084340 71 270 0.0 0.0 0.00 0.00 0.00 80 1016.1
20260831083837 71 270 0.0 0.0 0.00 0.00 0.00 80 1016.1
20260831083332 71 270 0.0 0.0 0.00 0.00 0.00 80 1016.2
20260831082830 71 270 0.0 0.0 0.00 0.00 0.00 80 1016.3
20260831082325 71 270 0.0 0.0 0.00 0.00 0.00 79 1016.2
20260831081821 71 270 0.0 0.0 0.00 0.00 0.00 79 1016.4
20260831081317 72 270 0.0 0.0 0.00 0.00 0.00 78 1016.2
20260831080812 72 270 0.0 0.0 0.00 0.00 0.00 79 1016.4
20260831080307 72 270 0.0 0.0 0.00 0.00 0.00 78 1016.3
20260831075803 72 270 0.0 0.0 0.00 0.00 0.00 78 1016.5
20260831075258 72 270 0.0 0.0 0.00 0.00 0.00 77 1016.2
20260831074758 73 270 0.0 0.0 0.00 0.00 0.00 77 1016.2
20260831074257 72 270 0.0 0.0 0.00 0.00 0.00 78 1016.5
20260831073754 72 270 0.0 0.0 0.00 0.00 0.00 77 1016.3
20260831073252 72 270 0.0 0.0 0.00 0.00 0.00 77 1016.5
20260831072747 72 270 0.0 0.0 0.00 0.00 0.00 77 1016.1
20260831072244 72 270 0.0 0.0 0.00 0.00 0.00 77 1016.1
20260831071743 72 270 0.0 0.0 0.00 0.00 0.00 76 1016.3
20260831071238 72 270 0.0 0.0 0.00 0.00 0.00 76 1016.2
20260831070733 73 270 0.0 0.0 0.00 0.00 0.00 76 1016.3
20260831070227 73 270 0.0 0.0 0.00 0.00 0.00 75 1016.1
20260831065726 73 270 0.0 1.0 0.00 0.00 0.00 74 1015.9
20260831065224 73 270 0.0 0.0 0.00 0.00 0.00 75 1016.1
20260831064719 73 270 0.0 0.0 0.00 0.00 0.00 74 1015.9
20260831064215 73 270 0.0 0.0 0.00 0.00 0.00 74 1016.1
20260831063711 73 270 0.0 0.0 0.00 0.00 0.00 73 1015.9
20260831063206 73 270 0.0 0.0 0.00 0.00 0.00 74 1016.0
20260831062705 74 331 0.0 1.0 0.00 0.00 0.00 74 1015.9
20260831062205 73 283 0.0 1.0 0.00 0.00 0.00 73 1016.1
20260831061703 74 270 0.0 0.0 0.00 0.00 0.00 72 1015.8
20260831061159 74 270 0.0 0.0 0.00 0.00 0.00 72 1016.2
20260831060655 73 279 0.0 0.0 0.00 0.00 0.00 73 1016.0
20260831060155 74 286 0.0 1.0 0.00 0.00 0.00 72 1015.9
20260831055654 74 291 0.0 1.0 0.00 0.00 0.00 72 1015.9
20260831055149 74 270 0.0 1.0 0.00 0.00 0.00 72 1016.1
20260831054649 74 270 0.0 1.0 0.00 0.00 0.00 72 1016.2
20260831054144 74 331 1.0 2.0 0.00 0.00 0.00 72 1016.1
20260831053638 74 279 0.0 2.0 0.00 0.00 0.00 72 1016.0
20260831053137 74 337 0.0 1.0 0.00 0.00 0.00 73 1016.1
20260831052636 74 254 0.0 2.0 0.00 0.00 0.00 74 1016.0
20260831052135 74 255 0.0 2.0 0.00 0.00 0.00 73 1016.2
20260831051629 74 262 0.0 0.0 0.00 0.00 0.00 73 1016.1
20260831051127 74 261 0.0 2.0 0.00 0.00 0.00 73 1016.1
20260831050622 75 261 0.0 2.0 0.00 0.00 0.00 72 1015.9
20260831050120 75 261 0.0 0.0 0.00 0.00 0.00 71 1016.1
20260831045620 75 261 0.0 1.0 0.00 0.00 0.00 71 1016.0
20260831045110 75 270 0.0 2.0 0.00 0.00 0.00 71 1015.8
20260831044605 75 246 0.0 1.0 0.00 0.00 0.00 70 1016.0
20260831044100 75 345 0.0 1.0 0.00 0.00 0.00 70 1015.8
20260831043555 75 255 0.0 2.0 0.00 0.00 0.00 70 1015.9
20260831043051 75 246 2.0 2.0 0.00 0.00 0.00 70 1016.0
20260831042550 75 0 0.0 2.0 0.00 0.00 0.00 70 1015.8
20260831042045 75 266 3.0 3.0 0.00 0.00 0.00 69 1015.6
20260831041540 75 278 0.0 2.0 0.00 0.00 0.00 69 1015.4
20260831041039 75 244 0.0 3.0 0.00 0.00 0.00 69 1015.4
20260831040534 75 340 0.0 1.0 0.00 0.00 0.00 69 1015.5
20260831040033 75 352 0.0 1.0 0.00 0.00 0.00 70 1015.5
20260831035525 75 328 0.0 2.0 0.00 0.00 0.00 69 1015.4
20260831035020 75 334 0.0 2.0 0.00 0.00 0.00 70 1015.4
20260831034509 76 337 0.0 2.0 0.00 0.00 0.00 69 1015.2
20260831034005 76 290 2.0 3.0 0.00 0.00 0.00 69 1015.3
20260831033501 76 342 2.0 3.0 0.00 0.00 0.00 68 1015.3
20260831032955 75 341 0.0 2.0 0.00 0.00 0.00 69 1014.8
20260831032450 76 221 2.0 2.0 0.00 0.00 0.00 69 1014.9
20260831031945 76 241 0.0 3.0 0.00 0.00 0.00 69 1015.0
20260831031445 76 292 0.0 4.0 0.00 0.00 0.00 69 1014.9
20260831030944 76 342 2.0 5.0 0.00 0.00 0.00 71 1014.7
20260831030443 76 346 0.0 5.0 0.00 0.00 0.00 71 1014.5
20260831025941 76 300 2.0 3.0 0.00 0.00 0.00 73 1014.4
20260831025441 76 286 0.0 3.0 0.00 0.00 0.00 74 1014.8
20260831024936 76 285 3.0 3.0 0.00 0.00 0.00 75 1014.4
20260831024436 77 340 0.0 3.0 0.00 0.00 0.00 75 1014.4
20260831023931 77 281 0.0 2.0 0.00 0.00 0.00 76 1014.3
20260831023429 77 270 0.0 3.0 0.00 0.00 0.00 76 1014.4
20260831022925 77 243 1.0 3.0 0.00 0.00 0.00 76 1014.4
20260831022423 77 324 5.0 5.0 0.00 0.00 0.00 76 1014.3
20260831021918 78 286 1.0 3.0 0.00 0.00 0.00 75 1014.2
20260831021417 78 285 0.0 4.0 0.00 0.00 0.00 75 1014.5
20260831020913 79 346 2.0 4.0 0.00 0.00 0.00 74 1014.3
20260831020408 79 300 2.0 5.0 0.00 0.00 0.00 73 1014.4
20260831015902 80 270 3.0 4.0 0.00 0.00 0.00 72 1014.2
20260831015358 80 220 2.0 4.0 0.00 0.00 0.00 72 1014.4
20260831014853 81 270 0.0 2.0 0.00 0.00 0.00 70 1014.0
20260831014347 82 0 0.0 4.0 0.00 0.00 0.00 69 1014.2
20260831013843 82 355 0.0 3.0 0.00 0.00 0.00 68 1014.2
20260831013338 84 251 2.0 4.0 0.00 0.00 0.00 65 1014.1
20260831012832 85 185 2.0 2.0 0.00 0.00 0.00 59 1014.2
20260831012328 85 157 0.0 3.0 0.00 0.00 0.00 59 1014.1
20260831011828 85 203 0.0 1.0 0.00 0.00 0.00 62 1014.2
20260831011323 85 251 0.0 2.0 0.00 0.00 0.00 60 1014.1
20260831010819 85 199 5.0 5.0 0.00 0.00 0.00 61 1014.1
20260831010318 85 98 0.0 4.0 0.00 0.00 0.00 61 1014.1
20260831005813 85 270 1.0 2.0 0.00 0.00 0.00 62 1014.1
20260831005309 84 264 0.0 3.0 0.00 0.00 0.00 64 1014.1
20260831004804 84 206 1.0 5.0 0.00 0.00 0.00 62 1014.2
20260831004301 86 196 0.0 3.0 0.00 0.00 0.00 62 1014.3
20260831003755 85 216 0.0 4.0 0.00 0.00 0.00 60 1014.2
20260831003251 86 206 0.0 3.0 0.00 0.00 0.00 60 1014.1
20260831002750 86 262 0.0 4.0 0.00 0.00 0.00 59 1014.4
20260831002245 86 246 0.0 3.0 0.00 0.00 0.00 59 1014.3
20260831001741 87 203 1.0 3.0 0.00 0.00 0.00 57 1014.1
20260831001236 85 192 0.0 4.0 0.00 0.00 0.00 60 1014.1
20260831000733 86 60 0.0 3.0 0.00 0.00 0.00 59 1014.2
20260831000228 87 212 2.0 2.0 0.00 0.00 0.00 59 1014.2
20260830235726 86 232 2.0 4.0 0.00 0.00 0.00 60 1014.2
20260830235221 87 109 2.0 4.0 0.00 0.00 0.00 59 1014.2
20260830234721 86 204 2.0 3.0 0.00 0.00 0.00 57 1014.0
20260830234217 87 163 0.0 5.0 0.00 0.00 0.00 56 1014.0
20260830233713 86 255 1.0 2.0 0.00 0.00 0.00 56 1013.9
20260830233208 86 247 0.0 2.0 0.00 0.00 0.00 57 1014.1
20260830232703 85 257 0.0 3.0 0.00 0.00 0.00 55 1014.3
20260830232159 86 213 2.0 5.0 0.00 0.00 0.00 55 1014.2
20260830231656 86 212 0.0 2.0 0.00 0.00 0.00 57 1014.5
20260830231155 86 210 2.0 5.0 0.00 0.00 0.00 57 1014.2
20260830230650 87 209 0.0 5.0 0.00 0.00 0.00 57 1014.2
20260830230145 86 257 0.0 3.0 0.00 0.00 0.00 58 1014.4
20260830225640 85 240 0.0 7.0 0.00 0.00 0.00 59 1014.3
20260830225135 86 211 3.0 5.0 0.00 0.00 0.00 58 1014.1
20260830224633 87 15 1.0 2.0 0.00 0.00 0.00 54 1014.3
20260830224124 87 194 2.0 4.0 0.00 0.00 0.00 55 1014.2
20260830223621 87 201 0.0 5.0 0.00 0.00 0.00 56 1014.4
20260830223120 86 144 0.0 5.0 0.00 0.00 0.00 58 1014.7
20260830222614 86 111 0.0 3.0 0.00 0.00 0.00 55 1014.7
20260830222111 87 257 2.0 3.0 0.00 0.00 0.00 54 1014.9
20260830221606 87 69 0.0 2.0 0.00 0.00 0.00 56 1014.9
20260830221102 86 203 0.0 5.0 0.00 0.00 0.00 56 1014.9
20260830220557 87 210 0.0 3.0 0.00 0.00 0.00 54 1014.8
20260830220055 84 234 0.0 4.0 0.00 0.00 0.00 55 1015.0
20260830215555 85 212 0.0 3.0 0.00 0.00 0.00 55 1014.9
20260830215049 86 270 0.0 4.0 0.00 0.00 0.00 53 1015.0
20260830214544 86 254 0.0 3.0 0.00 0.00 0.00 51 1015.1
20260830214039 86 348 0.0 3.0 0.00 0.00 0.00 54 1015.2
20260830213533 86 233 0.0 4.0 0.00 0.00 0.00 54 1015.2
20260830213024 86 248 0.0 3.0 0.00 0.00 0.00 51 1014.9
20260830212519 85 200 1.0 5.0 0.00 0.00 0.00 54 1015.3
20260830212014 86 254 2.0 3.0 0.00 0.00 0.00 53 1015.6
20260830211509 85 248 2.0 4.0 0.00 0.00 0.00 55 1015.6
20260830211003 86 200 1.0 3.0 0.00 0.00 0.00 55 1015.7
20260830210457 85 248 4.0 4.0 0.00 0.00 0.00 55 1015.6
20260830205955 85 265 2.0 4.0 0.00 0.00 0.00 57 1015.7
20260830205454 86 212 0.0 4.0 0.00 0.00 0.00 57 1015.6
20260830204950 86 202 2.0 5.0 0.00 0.00 0.00 58 1015.9
20260830204449 85 214 0.0 4.0 0.00 0.00 0.00 58 1015.6
20260830203944 86 202 4.0 4.0 0.00 0.00 0.00 57 1015.9
20260830203440 86 29 0.0 3.0 0.00 0.00 0.00 58 1015.7
20260830202939 86 198 0.0 4.0 0.00 0.00 0.00 60 1015.9
20260830202434 85 286 0.0 3.0 0.00 0.00 0.00 58 1015.9
20260830201930 86 196 0.0 3.0 0.00 0.00 0.00 58 1015.6
20260830201424 85 172 0.0 2.0 0.00 0.00 0.00 61 1015.8
20260830200920 84 209 1.0 3.0 0.00 0.00 0.00 59 1015.9
20260830200419 85 202 0.0 4.0 0.00 0.00 0.00 62 1015.9
20260830195909 82 74 0.0 3.0 0.00 0.00 0.00 66 1016.0
20260830195408 85 101 2.0 5.0 0.00 0.00 0.00 66 1016.0
20260830194901 84 213 3.0 5.0 0.00 0.00 0.00 66 1016.0
20260830194401 84 265 2.0 3.0 0.00 0.00 0.00 66 1015.8
20260830193855 84 187 0.0 3.0 0.00 0.00 0.00 66 1016.1
20260830193354 84 264 2.0 3.0 0.00 0.00 0.00 65 1015.7
20260830192850 85 216 0.0 2.0 0.00 0.00 0.00 65 1016.2
20260830192350 85 195 0.0 3.0 0.00 0.00 0.00 65 1015.9
20260830191846 85 175 2.0 3.0 0.00 0.00 0.00 64 1016.0
20260830191345 85 194 0.0 3.0 0.00 0.00 0.00 65 1016.0
20260830190841 83 180 0.0 5.0 0.00 0.00 0.00 66 1016.1
20260830190336 84 270 0.0 2.0 0.00 0.00 0.00 65 1016.2
20260830185834 84 194 0.0 2.0 0.00 0.00 0.00 66 1016.0
20260830185330 83 200 1.0 5.0 0.00 0.00 0.00 68 1016.1
20260830184825 84 187 0.0 3.0 0.00 0.00 0.00 67 1016.2
20260830184324 82 210 0.0 3.0 0.00 0.00 0.00 69 1016.2
20260830183819 82 203 1.0 5.0 0.00 0.00 0.00 69 1016.1
20260830183319 84 286 1.0 4.0 0.00 0.00 0.00 66 1016.2
20260830182815 83 187 0.0 3.0 0.00 0.00 0.00 67 1016.2
20260830182311 82 206 0.0 5.0 0.00 0.00 0.00 67 1016.4
20260830181807 83 239 0.0 3.0 0.00 0.00 0.00 64 1016.2
20260830181302 81 232 0.0 3.0 0.00 0.00 0.00 63 1016.3
20260830180801 84 197 2.0 2.0 0.00 0.00 0.00 62 1016.2
20260830180255 82 297 0.0 1.0 0.00 0.00 0.00 65 1016.4
20260830175749 82 261 0.0 3.0 0.00 0.00 0.00 65 1016.1
20260830175245 81 198 3.0 3.0 0.00 0.00 0.00 65 1016.1
20260830174744 80 35 0.0 2.0 0.00 0.00 0.00 67 1016.2
20260830174241 81 225 3.0 4.0 0.00 0.00 0.00 65 1016.2
20260830173740 81 192 0.0 0.0 0.00 0.00 0.00 65 1016.4
20260830173235 82 112 0.0 2.0 0.00 0.00 0.00 64 1016.5
20260830172732 79 206 0.0 1.0 0.00 0.00 0.00 66 1016.2
20260830172229 78 206 0.0 2.0 0.00 0.00 0.00 67 1016.3
20260830171724 80 287 0.0 2.0 0.00 0.00 0.00 67 1016.2
20260830171219 80 250 0.0 3.0 0.00 0.00 0.00 68 1016.5
20260830170713 78 82 0.0 3.0 0.00 0.00 0.00 67 1016.2
20260830170212 79 270 0.0 0.0 0.00 0.00 0.00 68 1016.4
20260830165712 78 0 0.0 1.0 0.00 0.00 0.00 69 1016.3
20260830165208 79 96 0.0 3.0 0.00 0.00 0.00 69 1016.4
20260830164704 80 117 0.0 3.0 0.00 0.00 0.00 70 1016.2
20260830164200 80 135 0.0 2.0 0.00 0.00 0.00 69 1016.4
20260830163656 79 90 0.0 1.0 0.00 0.00 0.00 71 1016.3